When you browse on this site, cookies collect data to enhance your experience and personalize the content and advertising you see.
Visit our Privacy Policy to learn more. By continuing to use the site, you agree to this use of cookies and data.
  • In Hungary
  • List of Countries
  • For 7 days
  • Water Temperature
  • Weather Map
  • News
  • Weather Widgets
  • user-avatar
    Login

    Hourly Weather Yavkyne

    Today, 1 April, Wednesday

    Time Temperature Precipitation Wind Pressure Humidity
    00:00 -1°C° 0 mm 4 mps 759 mmHg 58%
    01:00 -2°C° 0 mm 4 mps 759 mmHg 58%
    02:00 -2°C° 0 mm 4 mps 760 mmHg 60%
    03:00 -2°C° 0 mm 3 mps 760 mmHg 60%
    04:00 -2°C° 0 mm 3 mps 760 mmHg 60%
    05:00 -4°C° 0 mm 3 mps 760 mmHg 61%
    06:00 -1°C° 0 mm 3 mps 760 mmHg 53%
    07:00 -1°C° 0 mm 4 mps 760 mmHg 45%
    08:00 0°C° 0 mm 5 mps 761 mmHg 37%
    09:00 +1°C° 0 mm 4 mps 760 mmHg 34%
    10:00 +3°C° 0 mm 4 mps 760 mmHg 31%
    11:00 +4°C° 0 mm 3 mps 760 mmHg 28%
    12:00 +5°C° 0 mm 3 mps 759 mmHg 28%
    13:00 +7°C° 0 mm 3 mps 759 mmHg 27%
    14:00 +7°C° 0 mm 3 mps 759 mmHg 26%
    15:00 +7°C° 0 mm 3 mps 759 mmHg 27%
    16:00 +7°C° 0 mm 3 mps 758 mmHg 27%
    17:00 +7°C° 0 mm 2 mps 758 mmHg 28%
    18:00 +6°C° 0 mm 2 mps 758 mmHg 31%
    19:00 +5°C° 0 mm 2 mps 758 mmHg 34%
    20:00 +4°C° 0 mm 2 mps 758 mmHg 37%
    21:00 +3°C° 0 mm 2 mps 758 mmHg 40%
    22:00 +1°C° 0 mm 3 mps 758 mmHg 44%
    23:00 +1°C° 0 mm 3 mps 757 mmHg 47%

    Tomorrow, 2 April, Thursday

    Time Temperature Precipitation Wind Pressure Humidity
    00:00 0°C° 0 mm 3 mps 758 mmHg 48%
    01:00 0°C° 0 mm 3 mps 758 mmHg 50%
    02:00 0°C° 0 mm 3 mps 758 mmHg 51%
    03:00 -1°C° 0 mm 3 mps 757 mmHg 51%
    04:00 -1°C° 0 mm 2 mps 757 mmHg 51%
    05:00 -1°C° 0 mm 2 mps 757 mmHg 52%
    06:00 +1°C° 0 mm 2 mps 757 mmHg 47%
    07:00 +3°C° 0 mm 2 mps 757 mmHg 42%
    08:00 +5°C° 0 mm 2 mps 757 mmHg 37%
    09:00 +6°C° 0 mm 2 mps 757 mmHg 33%
    10:00 +7°C° 0 mm 3 mps 757 mmHg 29%
    11:00 +8°C° 0 mm 3 mps 757 mmHg 25%
    12:00 +9°C° 0 mm 3 mps 757 mmHg 25%
    13:00 +10°C° 0 mm 3 mps 756 mmHg 25%
    14:00 +10°C° 0 mm 3 mps 756 mmHg 24%
    15:00 +10°C° 0 mm 3 mps 756 mmHg 26%
    16:00 +10°C° 0 mm 3 mps 755 mmHg 27%
    17:00 +9°C° 0 mm 2 mps 755 mmHg 28%
    18:00 +8°C° 0 mm 2 mps 755 mmHg 32%
    19:00 +7°C° 0 mm 2 mps 755 mmHg 35%
    20:00 +5°C° 0 mm 2 mps 755 mmHg 39%
    21:00 +5°C° 0 mm 2 mps 755 mmHg 40%
    22:00 +4°C° 0 mm 2 mps 755 mmHg 41%
    23:00 +3°C° 0 mm 2 mps 755 mmHg 42%

    Day after tomorrow, 3 April, Friday

    Time Temperature Precipitation Wind Pressure Humidity
    00:00 +3°C° 0 mm 2 mps 755 mmHg 43%
    01:00 +4°C° 0 mm 1 mps 755 mmHg 44%
    02:00 +3°C° 0 mm 1 mps 755 mmHg 45%
    03:00 +3°C° 0 mm 1 mps 755 mmHg 46%
    04:00 +3°C° 0 mm 1 mps 755 mmHg 47%
    05:00 +2°C° 0 mm 1 mps 755 mmHg 47%
    06:00 +4°C° 0 mm 1 mps 755 mmHg 44%
    07:00 +6°C° 0 mm 1 mps 755 mmHg 41%
    08:00 +7°C° 0 mm 1 mps 755 mmHg 38%
    09:00 +9°C° 0 mm 1 mps 755 mmHg 35%
    10:00 +9°C° 0 mm 2 mps 755 mmHg 32%
    11:00 +10°C° 0 mm 2 mps 755 mmHg 30%
    12:00 +12°C° 0 mm 2 mps 755 mmHg 29%
    13:00 +13°C° 0 mm 2 mps 755 mmHg 28%
    14:00 +14°C° 0 mm 2 mps 755 mmHg 27%
    15:00 +13°C° 0 mm 2 mps 754 mmHg 28%
    16:00 +13°C° 0 mm 2 mps 754 mmHg 29%
    17:00 +12°C° 0 mm 3 mps 754 mmHg 29%
    18:00 +10°C° 0 mm 3 mps 755 mmHg 34%
    19:00 +9°C° 0 mm 3 mps 755 mmHg 38%
    20:00 +7°C° 0 mm 3 mps 755 mmHg 42%
    21:00 +6°C° 0 mm 2 mps 756 mmHg 42%
    22:00 +6°C° 0 mm 2 mps 756 mmHg 42%
    23:00 +5°C° 0 mm 2 mps 756 mmHg 42%

    4 April, Saturday

    Time Temperature Precipitation Wind Pressure Humidity
    00:00 +4°C° 0 mm 2 mps 756 mmHg 44%
    01:00 +4°C° 0 mm 2 mps 756 mmHg 46%
    02:00 +4°C° 0 mm 2 mps 757 mmHg 48%
    03:00 +3°C° 0 mm 2 mps 757 mmHg 51%
    04:00 +3°C° 0 mm 2 mps 757 mmHg 54%
    05:00 +4°C° 0 mm 1 mps 757 mmHg 57%
    06:00 +5°C° 0 mm 2 mps 757 mmHg 57%
    07:00 +6°C° 0 mm 2 mps 758 mmHg 56%
    08:00 +8°C° 0 mm 2 mps 758 mmHg 55%
    09:00 +9°C° 0 mm 2 mps 758 mmHg 52%
    10:00 +12°C° 0 mm 2 mps 759 mmHg 48%
    11:00 +13°C° 0 mm 3 mps 759 mmHg 45%
    12:00 +15°C° 0 mm 2 mps 759 mmHg 41%
    13:00 +15°C° 0 mm 2 mps 759 mmHg 38%
    14:00 +16°C° 0 mm 2 mps 759 mmHg 35%
    15:00 +16°C° 0 mm 2 mps 759 mmHg 35%
    16:00 +16°C° 0 mm 2 mps 759 mmHg 35%
    17:00 +16°C° 0 mm 2 mps 759 mmHg 35%
    18:00 +14°C° 0 mm 2 mps 760 mmHg 42%
    19:00 +12°C° 0 mm 2 mps 760 mmHg 49%
    20:00 +10°C° 0 mm 2 mps 761 mmHg 56%
    21:00 +9°C° 0 mm 2 mps 761 mmHg 59%
    22:00 +9°C° 0 mm 2 mps 762 mmHg 61%
    23:00 +8°C° 0 mm 2 mps 762 mmHg 64%

    5 April, Sunday

    Time Temperature Precipitation Wind Pressure Humidity
    00:00 +8°C° 0 mm 2 mps 762 mmHg 66%
    01:00 +8°C° 0 mm 2 mps 762 mmHg 67%
    02:00 +7°C° 0 mm 3 mps 763 mmHg 69%
    03:00 +7°C° 0 mm 3 mps 763 mmHg 69%
    04:00 +5°C° 0 mm 3 mps 763 mmHg 69%
    05:00 +5°C° 0 mm 3 mps 764 mmHg 68%
    06:00 +7°C° 0 mm 3 mps 764 mmHg 62%
    07:00 +8°C° 0 mm 3 mps 764 mmHg 57%
    08:00 +10°C° 0 mm 4 mps 765 mmHg 51%
    09:00 +11°C° 0 mm 4 mps 765 mmHg 45%
    10:00 +12°C° 0 mm 5 mps 765 mmHg 39%
    11:00 +13°C° 0 mm 5 mps 765 mmHg 33%
    12:00 +14°C° 0 mm 5 mps 765 mmHg 32%
    13:00 +14°C° 0 mm 6 mps 765 mmHg 32%
    14:00 +14°C° 0 mm 6 mps 765 mmHg 31%
    15:00 +12°C° 0 mm 7 mps 765 mmHg 33%
    16:00 +12°C° 0 mm 7 mps 765 mmHg 35%
    17:00 +11°C° 0 mm 8 mps 765 mmHg 37%
    18:00 +9°C° 0 mm 7 mps 766 mmHg 38%
    19:00 +6°C° 0 mm 7 mps 766 mmHg 40%
    20:00 +4°C° 0 mm 7 mps 767 mmHg 41%
    21:00 +4°C° 0 mm 7 mps 768 mmHg 39%
    22:00 +3°C° 0 mm 7 mps 768 mmHg 38%
    23:00 +2°C° 0 mm 7 mps 768 mmHg 36%

    6 April, Monday

    Time Temperature Precipitation Wind Pressure Humidity
    00:00 +2°C° 0 mm 6 mps 769 mmHg 37%
    01:00 +1°C° 0 mm 6 mps 769 mmHg 38%
    02:00 +1°C° 0 mm 6 mps 769 mmHg 39%
    03:00 -1°C° 0 mm 6 mps 769 mmHg 41%
    04:00 -1°C° 0 mm 6 mps 769 mmHg 43%
    05:00 0°C° 0 mm 5 mps 770 mmHg 44%
    06:00 -1°C° 0 mm 6 mps 770 mmHg 42%
    07:00 0°C° 0 mm 7 mps 770 mmHg 39%
    08:00 +1°C° 0 mm 8 mps 771 mmHg 37%
    09:00 +2°C° 0 mm 8 mps 771 mmHg 34%
    10:00 +4°C° 0 mm 8 mps 771 mmHg 32%
    11:00 +5°C° 0 mm 7 mps 771 mmHg 30%
    12:00 +6°C° 0 mm 7 mps 771 mmHg 29%
    13:00 +6°C° 0 mm 7 mps 771 mmHg 29%
    14:00 +8°C° 0 mm 6 mps 771 mmHg 28%
    15:00 +7°C° 0 mm 6 mps 771 mmHg 29%
    16:00 +7°C° 0 mm 6 mps 771 mmHg 29%
    17:00 +7°C° 0 mm 6 mps 771 mmHg 30%
    18:00 +6°C° 0 mm 5 mps 771 mmHg 33%
    19:00 +4°C° 0 mm 4 mps 772 mmHg 36%
    20:00 +3°C° 0 mm 4 mps 772 mmHg 40%
    21:00 +3°C° 0 mm 4 mps 772 mmHg 41%
    22:00 +2°C° 0 mm 3 mps 772 mmHg 42%
    23:00 +2°C° 0 mm 3 mps 772 mmHg 43%
    Show more